GW3270 Weather Reports


time (UTC)temp
C
wind
direction
speed
KPH
gust
KPH
rain 1hr
cm
rain 24hr
cm
rain mn
cm
humidity
%
barometer
mb
20260906052914 22 278 0.0 3.2 0.13 0.10 0.10 96 1018.3
20260906052410 22 217 3.2 3.2 0.18 0.08 0.08 96 1018.3
20260906051907 23 210 4.8 6.4 0.23 0.08 0.08 95 1018.5
20260906051407 23 225 6.4 6.4 0.30 0.05 0.05 94 1019.1
20260906050902 23 212 0.0 4.8 0.13 0.03 0.03 93 1019.4
20260906050357 23 192 3.2 9.7 0.00 0.00 0.00 93 1019.3
20260906045856 23 299 0.0 4.8 0.00 0.00 0.00 95 1019.6
20260906045355 22 221 6.4 6.4 0.00 0.00 0.00 96 1019.2
20260906044851 22 210 3.2 6.4 0.00 0.00 0.00 97 1019.4
20260906044346 22 266 1.6 1.6 0.00 0.00 0.00 97 1018.6
20260906043842 22 263 3.2 3.2 0.00 0.00 0.00 97 1018.5
20260906043338 22 246 1.6 3.2 0.00 0.00 0.00 97 1018.0
20260906042833 22 271 0.0 3.2 0.00 0.00 0.00 97 1018.0
20260906042331 22 229 0.0 1.6 0.00 0.00 0.00 97 1018.3
20260906041827 22 213 3.2 3.2 0.00 0.00 0.00 97 1018.3
20260906041322 22 223 1.6 3.2 0.00 0.00 0.00 97 1018.6
20260906040817 22 244 0.0 1.6 0.00 0.00 0.00 97 1018.7
20260906040312 22 166 0.0 1.6 0.00 0.00 0.00 97 1018.7
20260906035813 22 241 1.6 3.2 0.00 0.00 0.00 97 1019.1
20260906035308 22 247 1.6 3.2 0.00 0.00 0.00 97 1019.3
20260906034803 22 191 1.6 3.2 0.00 0.00 0.00 97 1019.2
20260906034258 22 198 0.0 1.6 0.00 0.00 0.00 97 1019.1
20260906033754 22 253 1.6 1.6 0.00 0.00 0.00 97 1019.2
20260906033253 22 157 0.0 0.0 0.00 0.00 0.00 97 1019.0
20260906032749 22 217 0.0 1.6 0.00 0.00 0.00 97 1018.8
20260906032250 22 210 0.0 1.6 0.00 0.00 0.00 97 1018.7
20260906031744 22 235 0.0 3.2 0.00 0.00 0.00 97 1018.8
20260906031241 22 214 3.2 3.2 0.00 0.00 0.00 97 1018.8
20260906030735 22 211 1.6 3.2 0.00 0.00 0.00 97 1018.8
20260906030230 22 242 0.0 0.0 0.00 0.00 0.00 97 1018.8
20260906025729 -17 0.0 0.0 0.00 0.00 0.00 1018.7
20260906025229 -17 0.0 0.0 0.00 0.00 0.00 1019.0
20260906024728 22 297 0.0 0.0 0.00 0.00 0.00 96 1018.5
20260906024227 22 297 0.0 0.0 0.00 0.00 0.00 96 1018.5
20260906023723 -17 0.0 0.0 0.00 0.00 0.00 1018.6
20260906023218 -17 0.0 0.0 0.00 0.00 0.00 1018.4
20260906022714 -17 0.0 0.0 0.00 0.00 0.00 1018.3
20260906022209 -17 0.0 0.0 0.00 0.00 0.00 1018.3
20260906021705 22 228 3.2 3.2 0.00 0.00 0.00 96 1018.0
20260906021203 22 228 3.2 3.2 0.00 0.00 0.00 96 1018.3
20260906020658 22 205 1.6 3.2 0.00 0.00 0.00 96 1017.8
20260906020153 23 220 1.6 1.6 0.00 0.00 0.00 96 1017.8
20260906015647 23 212 1.6 1.6 0.00 0.00 0.00 96 1017.8
20260906015146 23 205 0.0 0.0 0.00 0.00 0.00 95 1017.9
20260906014641 23 140 0.0 1.6 0.00 0.00 0.00 95 1017.7
20260906014137 23 246 1.6 3.2 0.00 0.00 0.00 95 1017.7
20260906013632 23 231 1.6 3.2 0.00 0.00 0.00 95 1017.7
20260906013127 23 142 0.0 1.6 0.00 0.00 0.00 95 1017.8
20260906012622 23 251 0.0 1.6 0.00 0.00 0.00 94 1017.6
20260906012117 23 193 0.0 3.2 0.00 0.00 0.00 94 1017.5
20260906011612 23 249 1.6 3.2 0.00 0.00 0.00 94 1017.5
20260906011107 23 254 1.6 3.2 0.00 0.00 0.00 93 1017.5
20260906010603 23 180 0.0 1.6 0.00 0.00 0.00 93 1017.8
20260906010059 23 200 1.6 3.2 0.00 0.00 0.00 93 1017.8
20260906005558 23 238 3.2 3.2 0.00 0.00 0.00 92 1017.7
20260906005056 24 174 0.0 0.0 0.00 0.00 0.00 92 1017.8
20260906004556 24 193 0.0 3.2 0.00 0.00 0.00 92 1018.0
20260906004051 24 245 3.2 3.2 0.00 0.00 0.00 91 1018.0
20260906003546 24 216 3.2 3.2 0.00 0.00 0.00 90 1018.0
20260906003042 24 238 3.2 3.2 0.00 0.00 0.00 90 1018.0
20260906002537 25 233 1.6 3.2 0.00 0.00 0.00 89 1017.7
20260906002032 25 227 1.6 3.2 0.00 0.00 0.00 89 1018.3
20260906001527 25 228 1.6 3.2 0.00 0.00 0.00 89 1018.0
20260906001021 25 254 1.6 3.2 0.00 0.00 0.00 88 1018.0
20260906000518 25 241 3.2 3.2 0.00 0.00 0.00 88 1018.1
20260906000018 25 208 3.2 3.2 0.00 0.00 0.00 87 1017.9
20260905235511 25 250 4.8 4.8 0.00 0.00 0.00 87 1018.0
20260905235007 26 242 1.6 3.2 0.00 0.00 0.00 87 1018.3
20260905234502 26 195 0.0 0.0 0.00 0.00 0.00 86 1017.8
20260905233956 26 258 1.6 3.2 0.00 0.00 0.00 86 1017.7
20260905233452 26 245 3.2 3.2 0.00 0.00 0.00 86 1017.8
20260905232950 26 233 3.2 3.2 0.00 0.00 0.00 85 1017.7
20260905232447 26 194 0.0 3.2 0.00 0.00 0.00 87 1017.8
20260905231943 26 252 1.6 3.2 0.00 0.00 0.00 85 1017.6
20260905231438 26 233 3.2 3.2 0.00 0.00 0.00 84 1017.5
20260905230934 27 233 3.2 3.2 0.00 0.00 0.00 83 1017.4
20260905230433 27 236 3.2 3.2 0.00 0.00 0.00 83 1017.5
20260905225931 27 249 3.2 3.2 0.00 0.00 0.00 83 1017.5
20260905225426 27 254 3.2 4.8 0.00 0.00 0.00 82 1017.7
20260905224921 27 232 3.2 3.2 0.00 0.00 0.00 82 1017.7
20260905224417 27 245 3.2 3.2 0.00 0.00 0.00 81 1017.5
20260905223917 27 251 3.2 3.2 0.00 0.00 0.00 82 1017.7
20260905223415 27 246 3.2 4.8 0.00 0.00 0.00 81 1017.5
20260905222915 27 245 3.2 3.2 0.00 0.00 0.00 81 1017.6
20260905222414 27 257 3.2 3.2 0.00 0.00 0.00 81 1017.5
20260905221910 27 238 4.8 4.8 0.00 0.00 0.00 80 1017.8
20260905221407 27 243 3.2 4.8 0.00 0.00 0.00 81 1017.7
20260905220902 27 239 3.2 4.8 0.00 0.00 0.00 81 1017.8
20260905220358 27 236 3.2 3.2 0.00 0.00 0.00 80 1018.0
20260905215857 27 247 3.2 4.8 0.00 0.00 0.00 79 1017.8
20260905215353 28 255 3.2 3.2 0.00 0.00 0.00 78 1017.9
20260905214849 28 253 1.6 4.8 0.00 0.00 0.00 76 1017.7
20260905214344 28 232 3.2 3.2 0.00 0.00 0.00 79 1017.7
20260905213839 28 229 3.2 3.2 0.00 0.00 0.00 78 1017.8
20260905213336 28 239 3.2 4.8 0.00 0.00 0.00 78 1017.9
20260905212835 28 233 3.2 4.8 0.00 0.00 0.00 79 1018.3
20260905212330 28 227 3.2 4.8 0.00 0.00 0.00 77 1018.3
20260905211824 28 238 3.2 4.8 0.00 0.00 0.00 76 1018.3
20260905211320 28 237 3.2 3.2 0.00 0.00 0.00 76 1018.0
20260905210817 28 236 3.2 4.8 0.00 0.00 0.00 74 1018.3
20260905210316 29 243 4.8 4.8 0.00 0.00 0.00 74 1018.3
20260905205815 30 235 3.2 4.8 0.00 0.00 0.00 71 1018.0
20260905205310 31 238 3.2 4.8 0.00 0.00 0.00 66 1018.4
20260905204809 31 240 4.8 6.4 0.00 0.00 0.00 64 1018.5
20260905204305 31 277 3.2 6.4 0.00 0.00 0.00 63 1018.4
20260905203804 30 259 3.2 3.2 0.00 0.00 0.00 66 1018.6
20260905203300 30 164 4.8 4.8 0.00 0.00 0.00 67 1018.9
20260905202755 30 283 3.2 4.8 0.00 0.00 0.00 67 1018.9
20260905202250 30 267 3.2 6.4 0.00 0.00 0.00 68 1018.7
20260905201745 29 284 0.0 6.4 0.00 0.00 0.00 72 1018.9
20260905201240 28 315 1.6 4.8 0.00 0.00 0.00 75 1019.1
20260905200736 27 214 0.0 3.2 0.00 0.00 0.00 76 1018.8
20260905200231 27 233 3.2 4.8 0.00 0.00 0.00 80 1018.8
20260905195729 27 245 3.2 3.2 0.00 0.00 0.00 81 1018.9
20260905195224 27 221 3.2 3.2 0.00 0.00 0.00 82 1018.9
20260905194720 27 235 3.2 4.8 0.00 0.00 0.00 81 1018.9
20260905194220 27 235 3.2 4.8 0.00 0.00 0.00 82 1018.8
20260905193719 27 233 3.2 3.2 0.00 0.00 0.00 81 1018.7
20260905193214 27 218 3.2 3.2 0.00 0.00 0.00 79 1018.6
20260905192709 28 240 1.6 3.2 0.00 0.00 0.00 76 1018.9
20260905192206 28 245 3.2 4.8 0.00 0.00 0.00 75 1019.0
20260905191705 28 253 3.2 3.2 0.00 0.00 0.00 73 1018.9
20260905191203 29 242 3.2 3.2 0.00 0.00 0.00 72 1018.9
20260905190702 29 249 3.2 3.2 0.00 0.00 0.00 71 1019.0
20260905190201 30 256 3.2 3.2 0.00 0.00 0.00 70 1019.2
20260905185700 30 358 0.0 4.8 0.00 0.00 0.00 65 1019.1
20260905185155 31 227 6.4 6.4 0.00 0.00 0.00 65 1019.2
20260905184654 31 231 0.0 6.4 0.00 0.00 0.00 65 1019.3
20260905184153 31 219 3.2 4.8 0.00 0.00 0.00 61 1019.1
20260905183648 32 220 3.2 6.4 0.00 0.00 0.00 59 1018.9
20260905183143 31 212 3.2 4.8 0.00 0.00 0.00 63 1018.7
20260905182642 31 183 0.0 3.2 0.00 0.00 0.00 60 1019.2
20260905182137 32 233 3.2 4.8 0.00 0.00 0.00 57 1019.1
20260905181632 33 218 3.2 4.8 0.00 0.00 0.00 54 1019.2
20260905181131 32 245 6.4 9.7 0.00 0.00 0.00 55 1019.2
20260905180626 32 238 6.4 8.0 0.00 0.00 0.00 61 1019.5
20260905180121 32 261 3.2 4.8 0.00 0.00 0.00 62 1019.2
20260905175620 32 262 6.4 6.4 0.00 0.00 0.00 64 1019.7
20260905175116 31 225 3.2 6.4 0.00 0.00 0.00 64 1019.5
20260905174612 31 243 4.8 4.8 0.00 0.00 0.00 60 1019.4
20260905174107 32 249 3.2 3.2 0.00 0.00 0.00 57 1019.5
20260905173603 32 250 3.2 3.2 0.00 0.00 0.00 54 1019.4
20260905173058 31 231 4.8 6.4 0.00 0.00 0.00 62 1019.5
20260905172557 31 231 4.8 6.4 0.00 0.00 0.00 65 1019.7
20260905172052 31 262 1.6 4.8 0.00 0.00 0.00 66 1019.5
20260905171549 31 251 3.2 4.8 0.00 0.00 0.00 62 1019.6
20260905171044 31 260 3.2 3.2 0.00 0.00 0.00 59 1019.7
20260905170541 32 199 4.8 8.0 0.00 0.00 0.00 58 1019.9
20260905170036 32 200 4.8 6.4 0.00 0.00 0.00 57 1019.9
20260905165530 31 235 0.0 4.8 0.00 0.00 0.00 57 1019.9
20260905165025 32 206 4.8 6.4 0.00 0.00 0.00 59 1020.0
20260905164520 31 185 3.2 6.4 0.00 0.00 0.00 59 1020.0
20260905164015 31 191 3.2 6.4 0.00 0.00 0.00 60 1020.3
20260905163511 31 213 4.8 8.0 0.00 0.00 0.00 60 1020.3
20260905163007 31 216 3.2 6.4 0.00 0.00 0.00 60 1020.5
20260905162503 31 251 4.8 6.4 0.00 0.00 0.00 61 1020.5
20260905161957 31 218 6.4 6.4 0.00 0.00 0.00 60 1020.3
20260905161456 31 244 6.4 6.4 0.00 0.00 0.00 64 1020.7
20260905160954 31 235 9.7 11.3 0.00 0.00 0.00 63 1020.3
20260905160453 31 246 4.8 4.8 0.00 0.00 0.00 68 1020.6
20260905155948 31 237 3.2 6.4 0.00 0.00 0.00 67 1020.4
20260905155443 31 248 4.8 6.4 0.00 0.00 0.00 66 1020.4
20260905154942 30 222 4.8 6.4 0.00 0.00 0.00 69 1020.5
20260905154437 30 236 4.8 6.4 0.00 0.00 0.00 69 1020.5
20260905153932 31 222 3.2 4.8 0.00 0.00 0.00 65 1020.4
20260905153429 30 237 3.2 4.8 0.00 0.00 0.00 62 1020.7
20260905152928 30 209 3.2 6.4 0.00 0.00 0.00 70 1020.7
20260905152428 31 180 0.0 3.2 0.00 0.00 0.00 64 1020.8
20260905151923 30 220 3.2 4.8 0.00 0.00 0.00 69 1020.5
20260905151419 28 235 3.2 4.8 0.00 0.00 0.00 75 1020.7
20260905150918 28 242 4.8 6.4 0.00 0.00 0.00 76 1020.7
20260905150413 28 234 3.2 4.8 0.00 0.00 0.00 75 1021.2
20260905145910 27 228 4.8 4.8 0.00 0.00 0.00 78 1020.7
20260905145410 27 231 3.2 4.8 0.00 0.00 0.00 79 1021.0
20260905144909 27 229 4.8 4.8 0.00 0.00 0.00 78 1020.7
20260905144405 27 219 4.8 6.4 0.00 0.00 0.00 75 1020.9
20260905143903 27 214 3.2 3.2 0.00 0.00 0.00 79 1020.6
20260905143357 26 221 4.8 4.8 0.00 0.00 0.00 85 1020.9
20260905142851 26 238 4.8 4.8 0.00 0.00 0.00 86 1020.8
20260905142344 25 237 4.8 4.8 0.00 0.00 0.00 87 1020.7
20260905141841 25 231 3.2 3.2 0.00 0.00 0.00 87 1020.7
20260905141336 25 231 3.2 4.8 0.00 0.00 0.00 89 1020.8
20260905140832 25 238 3.2 3.2 0.00 0.00 0.00 89 1020.7
20260905140332 25 231 3.2 3.2 0.00 0.00 0.00 90 1020.9
20260905135830 24 207 1.6 3.2 0.00 0.00 0.00 91 1020.8
20260905135326 23 230 0.0 1.6 0.00 0.00 0.00 92 1021.0
20260905134821 23 243 1.6 3.2 0.00 0.00 0.00 91 1021.2
20260905134315 23 261 0.0 3.2 0.00 0.00 0.00 92 1020.9
20260905133814 23 243 3.2 3.2 0.00 0.00 0.00 92 1021.0
20260905133310 23 240 1.6 3.2 0.00 0.00 0.00 92 1021.2
20260905132809 22 210 3.2 3.2 0.00 0.00 0.00 93 1021.1
20260905132306 22 238 1.6 3.2 0.00 0.00 0.00 94 1021.1
20260905131759 22 243 1.6 3.2 0.00 0.00 0.00 94 1021.1
20260905131254 22 250 0.0 3.2 0.00 0.00 0.00 95 1020.9
20260905130749 22 202 0.0 3.2 0.00 0.00 0.00 95 1021.0
20260905130248 21 238 0.0 3.2 0.00 0.00 0.00 95 1021.3
20260905125744 21 285 0.0 3.2 0.00 0.00 0.00 96 1021.2
20260905125238 21 218 1.6 1.6 0.00 0.00 0.00 96 1021.2
20260905124735 21 230 3.2 3.2 0.00 0.00 0.00 97 1021.3
20260905124231 21 228 0.0 3.2 0.00 0.00 0.00 97 1021.2
20260905123726 20 154 0.0 3.2 0.00 0.00 0.00 96 1021.2
20260905123223 20 164 1.6 3.2 0.00 0.00 0.00 97 1021.2
20260905122722 20 140 0.0 3.2 0.00 0.00 0.00 97 1021.2
20260905122217 20 142 0.0 3.2 0.00 0.00 0.00 97 1021.0
20260905121712 20 215 0.0 3.2 0.00 0.00 0.00 97 1020.8
20260905121209 20 336 1.6 3.2 0.00 0.00 0.00 98 1020.6
20260905120707 20 284 0.0 1.6 0.00 0.00 0.00 98 1020.8
20260905120202 20 225 0.0 3.2 0.00 0.00 0.00 98 1020.7
20260905115701 20 269 0.0 1.6 0.00 0.00 0.00 98 1020.8
20260905115156 19 212 0.0 3.2 0.00 0.00 0.00 98 1020.8
20260905114656 19 346 0.0 3.2 0.00 0.00 0.00 98 1020.8
20260905114154 19 135 0.0 3.2 0.00 0.00 0.00 98 1020.8
20260905113649 19 166 0.0 3.2 0.00 0.00 0.00 98 1020.5
20260905113145 19 163 0.0 3.2 0.00 0.00 0.00 98 1020.5
20260905112644 19 112 0.0 3.2 0.00 0.00 0.00 98 1020.5
20260905112141 19 141 0.0 3.2 0.00 0.00 0.00 98 1020.3
20260905111640 19 174 0.0 1.6 0.00 0.00 0.00 98 1020.3
20260905111140 19 224 0.0 3.2 0.00 0.00 0.00 98 1020.0
20260905110639 19 264 0.0 1.6 0.00 0.00 0.00 98 1019.9
20260905110134 19 147 0.0 1.6 0.00 0.00 0.00 98 1020.0
20260905105629 19 112 0.0 3.2 0.00 0.00 0.00 98 1020.3
20260905105128 19 156 1.6 3.2 0.00 0.00 0.00 98 1019.9
20260905104623 19 211 0.0 3.2 0.00 0.00 0.00 98 1020.0
20260905104119 19 157 1.6 3.2 0.00 0.00 0.00 98 1020.0
20260905103614 19 164 0.0 3.2 0.00 0.00 0.00 98 1019.7
20260905103110 19 156 1.6 3.2 0.00 0.00 0.00 98 1019.9
20260905102605 19 98 0.0 3.2 0.00 0.00 0.00 98 1019.7
20260905102102 19 156 1.6 3.2 0.00 0.00 0.00 98 1020.0
20260905101600 19 119 0.0 3.2 0.00 0.00 0.00 98 1019.9
20260905101058 19 240 0.0 3.2 0.00 0.00 0.00 98 1019.7
20260905100549 19 55 0.0 3.2 0.00 0.00 0.00 98 1019.9
20260905100049 19 200 1.6 3.2 0.00 0.00 0.00 98 1019.6
20260905095538 19 160 0.0 3.2 0.00 0.00 0.00 98 1019.8
20260905095033 19 182 0.0 3.2 0.00 0.00 0.00 98 1019.7
20260905094528 19 138 0.0 3.2 0.00 0.00 0.00 98 1019.8
20260905094027 19 89 0.0 3.2 0.00 0.00 0.00 98 1019.6
20260905093522 20 156 0.0 3.2 0.00 0.00 0.00 98 1019.4
20260905093018 20 106 0.0 3.2 0.00 0.00 0.00 98 1019.4
20260905092513 20 130 1.6 3.2 0.00 0.00 0.00 98 1019.4
20260905092009 20 245 1.6 3.2 0.00 0.00 0.00 98 1019.5
20260905091508 20 158 0.0 3.2 0.00 0.00 0.00 98 1019.3
20260905091003 20 246 0.0 3.2 0.00 0.00 0.00 98 1019.5
20260905090457 20 283 0.0 3.2 0.00 0.00 0.00 98 1019.6
20260905085956 20 221 0.0 1.6 0.00 0.00 0.00 98 1019.6
20260905085455 20 207 0.0 3.2 0.00 0.00 0.00 98 1019.6
20260905084952 20 112 1.6 3.2 0.00 0.00 0.00 98 1019.5
20260905084451 20 226 1.6 3.2 0.00 0.00 0.00 98 1019.7
20260905083945 20 122 0.0 3.2 0.00 0.00 0.00 98 1019.6
20260905083441 20 227 1.6 3.2 0.00 0.00 0.00 98 1019.7
20260905082937 20 186 0.0 3.2 0.00 0.00 0.00 98 1019.7
20260905082433 20 132 0.0 3.2 0.00 0.00 0.00 98 1019.5
20260905081928 20 52 0.0 3.2 0.00 0.00 0.00 98 1019.6
20260905081428 20 158 0.0 3.2 0.00 0.00 0.00 98 1019.7
20260905080927 20 190 1.6 3.2 0.00 0.00 0.00 98 1019.6
20260905080421 20 135 0.0 3.2 0.00 0.00 0.00 98 1019.9
20260905075920 20 198 1.6 3.2 0.00 0.00 0.00 98 1019.8
20260905075414 20 215 1.6 3.2 0.00 0.00 0.00 98 1019.8
20260905074914 20 150 0.0 3.2 0.00 0.00 0.00 98 1020.3
20260905074409 20 256 0.0 3.2 0.00 0.00 0.00 98 1019.7
20260905073905 20 215 1.6 3.2 0.00 0.00 0.00 98 1019.8
20260905073400 20 144 1.6 3.2 0.00 0.00 0.00 98 1020.2
20260905072855 20 150 0.0 3.2 0.00 0.00 0.00 98 1020.2
20260905072350 20 217 0.0 3.2 0.00 0.00 0.00 98 1020.0
20260905071846 20 220 0.0 3.2 0.00 0.00 0.00 98 1020.3
20260905071337 20 192 0.0 3.2 0.00 0.00 0.00 98 1020.2
20260905070831 20 195 0.0 3.2 0.00 0.00 0.00 98 1019.8
20260905070328 20 192 1.6 3.2 0.00 0.00 0.00 98 1019.9
20260905065826 20 137 0.0 3.2 0.00 0.00 0.00 98 1020.0
20260905065325 20 187 0.0 1.6 0.00 0.00 0.00 98 1020.0
20260905064821 20 131 0.0 3.2 0.00 0.00 0.00 98 1020.2
20260905064316 21 146 0.0 1.6 0.00 0.00 0.00 98 1020.4
20260905063814 21 230 0.0 3.2 0.00 0.00 0.00 98 1020.0
20260905063311 21 16 0.0 1.6 0.00 0.00 0.00 98 1019.9
20260905062807 21 175 0.0 1.6 0.00 0.00 0.00 98 1020.0
20260905062301 21 313 0.0 3.2 0.00 0.00 0.00 98 1020.3
20260905061755 21 235 0.0 1.6 0.00 0.00 0.00 98 1020.4
20260905061249 21 237 0.0 1.6 0.00 0.00 0.00 98 1020.3
20260905060744 21 222 1.6 3.2 0.00 0.00 0.00 98 1020.6
20260905060242 21 156 1.6 3.2 0.00 0.00 0.00 98 1020.6
20260905055740 21 172 0.0 3.2 0.00 0.00 0.00 98 1020.5
20260905055235 21 96 0.0 3.2 0.00 0.00 0.00 98 1020.3
20260905054730 21 235 0.0 3.2 0.00 0.00 0.00 98 1020.6
20260905054227 21 151 0.0 3.2 0.00 0.00 0.00 98 1020.5
20260905053725 21 309 0.0 1.6 0.00 0.00 0.00 98 1020.4
20260905053221 21 200 3.2 3.2 0.00 0.00 0.00 97 1020.5